This is the latest recevied weather packets stored in our database for station/object SK0BO-13. If no packets are shown the sender has not sent any weather packets the latest 10 day(s).
| Time | Temp. | Humidity | Pressure | Rain* | Wind** | Luminosity | Snow |
|---|---|---|---|---|---|---|---|
| 1777994922 | 23.89° C | - | 990.7 hPa | 0 mm | - | - | - |
| 1777992403 | 26.11° C | - | 990.7 hPa | 0 mm | - | - | - |
| 1777989882 | 29.44° C | - | 990.7 hPa | 0 mm | - | - | - |
| 1777987362 | 28.33° C | - | 990.7 hPa | 0 mm | - | - | - |
| 1777984843 | 25.56° C | - | 990.7 hPa | 0 mm | - | - | - |
| 1777982322 | 28.33° C | - | 990.6 hPa | 0 mm | - | - | - |
| 1777979802 | 26.11° C | - | 990.4 hPa | 0 mm | - | - | - |
| 1777977283 | 25° C | - | 989.9 hPa | 0 mm | - | - | - |
| 1777974762 | 26.11° C | - | 989.7 hPa | 0 mm | - | - | - |
| 1777972242 | 25.56° C | - | 989.7 hPa | 0 mm | - | - | - |
| 1777969722 | 24.44° C | - | 989.7 hPa | 0 mm | - | - | - |
| 1777967202 | 21.67° C | 100% | 989 hPa | 0 mm | - | - | - |
| 1777964683 | 19.44° C | 2% | 988.7 hPa | 0 mm | - | - | - |
| 1777962162 | 20° C | 6% | 988.7 hPa | 0 mm | - | - | - |
| 1777959642 | 17.78° C | 11% | 987.7 hPa | 0 mm | - | - | - |
| 1777957122 | 12.78° C | 19% | 987.7 hPa | 0 mm | - | - | - |
| 1777954602 | 10° C | 23% | 987.7 hPa | 0 mm | - | - | - |
| 1777952083 | 10° C | 25% | 986.7 hPa | 0 mm | - | - | - |
| 1777949562 | 9.44° C | 23% | 986.7 hPa | 0 mm | - | - | - |
| 1777947042 | 9.44° C | 21% | 986.5 hPa | 0 mm | - | - | - |
| 1777944522 | 10° C | 17% | 986 hPa | 0 mm | - | - | - |
| 1777942003 | 10.56° C | 15% | 985.7 hPa | 0 mm | - | - | - |
| 1777939482 | 10.56° C | 13% | 985.7 hPa | 0 mm | - | - | - |
| 1777936962 | 11.11° C | 12% | 985.9 hPa | 0 mm | - | - | - |
| 1777934443 | 11.11° C | 11% | 986.4 hPa | 0 mm | - | - | - |
* Rain latest hour (hover to see other rain measurements)
** Current wind speed in m/s (hover to see current wind gust speed)